Location: Amsterdam
(30.7274°N, 84.4357°W)
Time: 12:34:42
(UTC+00:00)

Tiros 1 - Pass Details

Date: 16 February 2026
Orbit: 618 x 650 km, 48.4° (Epoch: 16 March)

Event Time Altitude Azimuth Distance (km) Brightness Sun altitude
Rises 19:17:03 0° 323° (NW) 2,887 10.3 42.5°
Reaches altitude 10° 19:20:25 10° 349° (NNW) 1,978 9.4 42.2°
Maximum altitude 19:22:50 14° 21° (NNE) 1,721 9.0 41.9°
Drops below altitude 10° 19:25:15 10° 54° (NE) 1,976 9.3 41.6°
Sets 19:28:37 0° 79° (E) 2,882 10.2 41.2°
